Dauntless Aviation
Greetings, Guest! To participate, [sign up for a free account] or [log in]
Airports Asia Indonesia
WIHH
HLP

Halim Perdanakusuma International Airport

Jakarta, INDONESIA

Airport Info
Edit

Location

Latitude / Longitude: 6°15'59"S / 106°53'27"E
  6°15.996'S / 106°53.46'E
  -6.2666 / 106.8910

Nearby radio navigation aids

AL HALIM PERDANAKUSUMA NDB. 243.5° 9.9nm from AL to field.
HLM HALIM PERDANAKUSUMA VOR/DME on field.

Runway Information

Runway 06 /24

Dimensions: 9843 x 197 ft.
Surface: ASP
 
Runway 06
Runway 24
Latitude: -6.272253 -6.261711
Longitude: 106.878792 106.9018
Elevation: 79 ft. 79 ft.
Runway true heading: 64 244
 
Satellite photo at:
Airport distance calculator
From:
Weather Reports

METAR

WIHH

WIHH 230500Z 14003KT 6000 SCT017 30/23 Q1012 NOSIG
WIII
15.6nm W
WIII 230530Z 03008KT 8000 SCT020 31/24 Q1010 NOSIG

TAF

WIHH
TAF WIHH 222300Z 2300/2324 00000KT 3000 HZ SCT017 TEMPO 2301/2303 12007KT 4000 -RA FEW016CB SCT017 BECMG 2304/2306 23004KT 5000 HZ SCT018 BECMG 2308/2310 6000 FEW017 TEMPO 2313/2316 18007KT 4000 -RA FEW017CB SCT018 BECMG 2318/2320 00000KT 5000 FEW017
WIII
15.6nm W
TAF WIII 222300Z 2300/2406 05010KT 9999 SCT022 TEMPO 2300/2303 21005KT 5000 -RA BECMG 2312/2314 20005KT 5000 HZ SCT020
Safelog

 

Dauntless Aviation

© 2007-2014 Dauntless Aviation, all rights reserved
Information provided via PilotNav comes from a variety of official and unofficial data sources. As errors are possible, do not use PilotNav for primary flight planning purposes. Verify any information that you receive via PilotNav with current and canonical charts and other official documents. The material in this database is subject to database copyrights held by Dauntless Aviation and may not be copied without the express permission of Dauntless Aviation - licenses for use of part of all of this data are available for purchase; enquire via the Dauntless Aviation helpdesk. A number of mechanisms and markers exist in the database to protect against and identify infringement / copyright. Automated queries against this website are stictly prohibited, and all activity is logged and analyzed.